Location: Grange Verzio
(44.5000°N, 6.9833°E)
Time: 10:48:58
(UTC+00:00)

Cosmos 1461 - Visible Passes

Search period start: 28 September 2023 00:00
Search period end: 08 October 2023 00:00
Orbit: 491 x 629 km, 65.0° (Epoch: 27 September)

Date Brightness Start Highest point End Pass type
(mag) Time Alt. Az. Time Alt. Az. Time Alt. Az.
28 Sep 5.8 01:52:48 16° NNE 01:52:48 16° NNE 01:53:44 10° NNE visible
28 Sep 5.4 03:28:42 11° NNW 03:28:57 12° NNW 03:30:32 10° N visible
29 Sep 5.9 01:51:19 14° NNE 01:51:19 14° NNE 01:51:58 10° NNE visible
30 Sep 6.0 01:49:48 12° NNE 01:49:48 12° NNE 01:50:10 10° NNE visible
01 Oct 6.1 01:48:13 10° NNE 01:48:13 10° NNE 01:48:17 10° NNE visible
07 Oct 5.9 04:56:49 10° NNE 04:57:08 10° NNE 04:57:26 10° NNE visible
